Wetterdaten: Mittwoch, 10.03.2004
Datum Zeit Temp. A Sch. Temp. A Son. Feuchte A. Luftdruck Regen Wind Richtung Richtung Sonnenschein Helligkeit Taupunkt Windchill
10.03.2004 00:00 -1,1 C -0,5 C 76 % 1026 hPa 0,0 l/m 1,9 m/s (1 Bft) NO45 45 0,00 min 0 lux -4,8 C -1,6 C
10.03.2004 00:05 -1,1 C -0,5 C 76 % 1026 hPa 0,0 l/m 1,7 m/s (1 Bft) NO45 50 0,00 min 0 lux -4,8 C -1,1 C
10.03.2004 00:10 -1,1 C -0,6 C 76 % 1026 hPa 0,0 l/m 4,1 m/s (1 Bft) O-NO22.5 75 0,00 min 0 lux -4,8 C -8,1 C
10.03.2004 00:15 -1,1 C -0,6 C 76 % 1026 hPa 0,0 l/m 3,2 m/s (1 Bft) O45 85 0,00 min 0 lux -4,8 C -6,0 C
10.03.2004 00:20 -1,2 C -0,6 C 76 % 1026 hPa 0,0 l/m 2,3 m/s (1 Bft) NO45 55 0,00 min 0 lux -4,9 C -3,2 C
10.03.2004 00:25 -1,2 C -0,6 C 77 % 1026 hPa 0,0 l/m 1,3 m/s (1 Bft) O45 85 0,00 min 0 lux -4,7 C -1,2 C
10.03.2004 00:30 -1,2 C -0,6 C 77 % 1026 hPa 0,0 l/m 2,3 m/s (1 Bft) O45 80 0,00 min 0 lux -4,7 C -3,2 C
10.03.2004 00:35 -1,2 C -0,6 C 77 % 1026 hPa 0,0 l/m 2,3 m/s (1 Bft) O-NO45 60 0,00 min 0 lux -4,7 C -3,1 C
10.03.2004 00:40 -1,2 C -0,6 C 78 % 1026 hPa 0,0 l/m 1,6 m/s (1 Bft) O22.5 90 0,00 min 0 lux -4,5 C -1,2 C
10.03.2004 00:45 -1,2 C -0,6 C 78 % 1026 hPa 0,0 l/m 2,3 m/s (1 Bft) O45 90 0,00 min 0 lux -4,5 C -3,3 C
10.03.2004 00:50 -1,2 C -0,6 C 78 % 1026 hPa 0,0 l/m 1,0 m/s (0 Bft) O 90 0,00 min 0 lux -4,5 C -1,2 C
10.03.2004 00:55 -1,2 C -0,6 C 78 % 1026 hPa 0,0 l/m 1,0 m/s (0 Bft) O 95 0,00 min 0 lux -4,5 C -1,2 C
10.03.2004 01:00 -1,2 C -0,6 C 79 % 1026 hPa 0,0 l/m 0,0 m/s (0 Bft) O 95 0,00 min 0 lux -4,4 C -1,2 C
10.03.2004 01:05 -1,2 C -0,6 C 79 % 1025 hPa 0,0 l/m 0,0 m/s (0 Bft) O 95 0,00 min 0 lux -4,4 C -1,2 C
10.03.2004 01:10 -1,2 C -0,6 C 79 % 1025 hPa 0,0 l/m 0,0 m/s (0 Bft) O 95 0,00 min 0 lux -4,4 C -1,2 C
10.03.2004 01:15 -1,2 C -0,6 C 79 % 1025 hPa 0,0 l/m 0,0 m/s (0 Bft) O 95 0,00 min 0 lux -4,4 C -1,2 C
10.03.2004 01:20 -1,2 C -0,6 C 79 % 1025 hPa 0,0 l/m 0,0 m/s (0 Bft) O 95 0,00 min 0 lux -4,4 C -1,2 C
10.03.2004 01:25 -1,2 C -0,6 C 80 % 1025 hPa 0,0 l/m 0,1 m/s (0 Bft) O 95 0,00 min 0 lux -4,2 C -1,2 C
10.03.2004 01:30 -1,2 C -0,6 C 80 % 1025 hPa 0,0 l/m 0,0 m/s (0 Bft) O 95 0,00 min 0 lux -4,2 C -1,2 C
10.03.2004 01:35 -1,3 C -0,6 C 80 % 1025 hPa 0,0 l/m 0,1 m/s (0 Bft) O 95 0,00 min 0 lux -4,3 C -1,3 C
10.03.2004 01:40 -1,3 C -0,6 C 80 % 1025 hPa 0,0 l/m 0,9 m/s (0 Bft) O 95 0,00 min 0 lux -4,3 C -1,3 C
10.03.2004 01:45 -1,3 C -0,6 C 80 % 1025 hPa 0,0 l/m 2,8 m/s (1 Bft) O-NO22.5 65 0,00 min 0 lux -4,3 C -4,9 C
10.03.2004 01:50 -1,3 C -0,6 C 80 % 1025 hPa 0,0 l/m 2,0 m/s (1 Bft) O-NO22.5 60 0,00 min 0 lux -4,3 C -2,2 C
10.03.2004 01:55 -1,3 C -0,6 C 79 % 1025 hPa 0,0 l/m 2,2 m/s (1 Bft) O22.5 90 0,00 min 0 lux -4,5 C -2,9 C
10.03.2004 02:00 -1,4 C -0,7 C 79 % 1025 hPa 0,0 l/m 0,2 m/s (0 Bft) NO45 45 0,00 min 0 lux -4,6 C -1,4 C
10.03.2004 02:05 -1,4 C -0,7 C 79 % 1025 hPa 0,0 l/m 1,8 m/s (1 Bft) O-NO45 60 0,00 min 0 lux -4,6 C -1,5 C
10.03.2004 02:10 -1,5 C -0,8 C 79 % 1025 hPa 0,0 l/m 1,7 m/s (1 Bft) O45 90 0,00 min 0 lux -4,7 C -1,5 C
10.03.2004 02:15 -1,5 C -0,8 C 79 % 1025 hPa 0,0 l/m 0,0 m/s (0 Bft) O-SO 105 0,00 min 0 lux -4,7 C -1,5 C
10.03.2004 02:20 -1,6 C -0,8 C 79 % 1025 hPa 0,0 l/m 0,4 m/s (0 Bft) O 90 0,00 min 0 lux -4,8 C -1,6 C
10.03.2004 02:25 -1,6 C -0,9 C 79 % 1025 hPa 0,0 l/m 0,1 m/s (0 Bft) O 90 0,00 min 0 lux -4,8 C -1,6 C
10.03.2004 02:30 -1,5 C -0,9 C 80 % 1025 hPa 0,0 l/m 0,1 m/s (0 Bft) O22.5 90 0,00 min 0 lux -4,5 C -1,5 C
10.03.2004 02:35 -1,4 C -0,8 C 80 % 1025 hPa 0,0 l/m 0,0 m/s (0 Bft) O-NO 65 0,00 min 0 lux -4,4 C -1,4 C
10.03.2004 02:40 -1,4 C -0,8 C 80 % 1025 hPa 0,0 l/m 0,0 m/s (0 Bft) O-NO 65 0,00 min 0 lux -4,4 C -1,4 C
10.03.2004 02:45 -1,4 C -0,8 C 80 % 1025 hPa 0,0 l/m 0,0 m/s (0 Bft) O-NO 65 0,00 min 0 lux -4,4 C -1,4 C
10.03.2004 02:50 -1,5 C -0,8 C 80 % 1025 hPa 0,0 l/m 1,8 m/s (1 Bft) O45 80 0,00 min 0 lux -4,5 C -1,5 C
10.03.2004 02:55 -1,5 C -0,8 C 80 % 1025 hPa 0,0 l/m 0,9 m/s (0 Bft) NO22.5 40 0,00 min 0 lux -4,5 C -1,5 C
10.03.2004 03:00 -1,3 C -0,8 C 80 % 1025 hPa 0,0 l/m 0,1 m/s (0 Bft) NO 50 0,00 min 0 lux -4,3 C -1,3 C
10.03.2004 03:05 -1,3 C -0,7 C 80 % 1024 hPa 0,0 l/m 0,0 m/s (0 Bft) NO 50 0,00 min 0 lux -4,3 C -1,3 C
10.03.2004 03:10 -1,3 C -0,6 C 80 % 1024 hPa 0,0 l/m 0,0 m/s (0 Bft) NO 50 0,00 min 0 lux -4,3 C -1,3 C
10.03.2004 03:15 -1,2 C -0,6 C 80 % 1024 hPa 0,0 l/m 0,0 m/s (0 Bft) NO 50 0,00 min 0 lux -4,2 C -1,2 C
10.03.2004 03:20 -1,4 C -0,6 C 80 % 1024 hPa 0,0 l/m 0,0 m/s (0 Bft) NO 50 0,00 min 0 lux -4,4 C -1,4 C
10.03.2004 03:25 -1,3 C -0,6 C 80 % 1024 hPa 0,0 l/m 0,0 m/s (0 Bft) NO 50 0,00 min 0 lux -4,3 C -1,3 C
10.03.2004 03:30 -1,4 C -0,6 C 80 % 1024 hPa 0,0 l/m 0,0 m/s (0 Bft) NO 50 0,00 min 0 lux -4,4 C -1,4 C
10.03.2004 03:35 -1,4 C -0,6 C 80 % 1024 hPa 0,0 l/m 0,9 m/s (0 Bft) O-NO22.5 65 0,00 min 0 lux -4,4 C -1,4 C
10.03.2004 03:40 -1,3 C -0,6 C 80 % 1024 hPa 0,0 l/m 0,0 m/s (0 Bft) NO 35 0,00 min 0 lux -4,3 C -1,3 C
10.03.2004 03:45 -1,4 C -0,6 C 80 % 1024 hPa 0,0 l/m 1,5 m/s (1 Bft) O-NO22.5 70 0,00 min 0 lux -4,4 C -1,4 C
10.03.2004 03:50 -1,3 C -0,6 C 80 % 1024 hPa 0,0 l/m 0,0 m/s (0 Bft) O 85 0,00 min 0 lux -4,3 C -1,3 C
10.03.2004 03:55 -1,3 C -0,6 C 81 % 1024 hPa 0,0 l/m 0,0 m/s (0 Bft) O 85 0,00 min 0 lux -4,1 C -1,3 C
10.03.2004 04:00 -1,2 C -0,6 C 81 % 1024 hPa 0,0 l/m 0,1 m/s (0 Bft) NO45 35 0,00 min 0 lux -4,0 C -1,2 C
10.03.2004 04:05 -1,3 C -0,6 C 81 % 1024 hPa 0,0 l/m 0,0 m/s (0 Bft) SW 235 0,00 min 0 lux -4,1 C -1,3 C
10.03.2004 04:10 -1,3 C -0,6 C 82 % 1024 hPa 0,0 l/m 0,0 m/s (0 Bft) SW 235 0,00 min 0 lux -4,0 C -1,3 C
10.03.2004 04:15 -1,4 C -0,6 C 82 % 1024 hPa 0,0 l/m 0,0 m/s (0 Bft) SW 235 0,00 min 0 lux -4,1 C -1,4 C
10.03.2004 04:20 -1,5 C -0,6 C 82 % 1024 hPa 0,0 l/m 0,0 m/s (0 Bft) SW 235 0,00 min 0 lux -4,2 C -1,5 C
10.03.2004 04:25 -1,3 C -0,7 C 83 % 1024 hPa 0,0 l/m 0,0 m/s (0 Bft) SW 235 0,00 min 0 lux -3,8 C -1,3 C
10.03.2004 04:30 -1,0 C -0,6 C 83 % 1024 hPa 0,0 l/m 0,0 m/s (0 Bft) SW 230 0,00 min 0 lux -3,5 C -1,0 C
10.03.2004 04:35 -1,4 C -0,6 C 83 % 1024 hPa 0,0 l/m 0,0 m/s (0 Bft) SW67.5 215 0,00 min 0 lux -3,9 C -1,4 C
10.03.2004 04:40 -1,4 C -0,6 C 83 % 1024 hPa 0,0 l/m 0,0 m/s (0 Bft) O-SO 120 0,00 min 0 lux -3,9 C -1,4 C
10.03.2004 04:45 -1,3 C -0,6 C 83 % 1023 hPa 0,0 l/m 0,0 m/s (0 Bft) O-SO 120 0,00 min 0 lux -3,8 C -1,3 C
10.03.2004 04:50 -1,3 C -0,6 C 83 % 1023 hPa 0,0 l/m 0,0 m/s (0 Bft) O-SO 120 0,00 min 0 lux -3,8 C -1,3 C
10.03.2004 04:55 -1,4 C -0,6 C 83 % 1023 hPa 0,0 l/m 0,0 m/s (0 Bft) O-SO 120 0,00 min 0 lux -3,9 C -1,4 C
10.03.2004 05:00 -1,4 C -0,7 C 83 % 1023 hPa 0,0 l/m 0,0 m/s (0 Bft) O-SO 120 0,00 min 0 lux -3,9 C -1,4 C
10.03.2004 05:05 -1,4 C -0,7 C 83 % 1023 hPa 0,0 l/m 0,0 m/s (0 Bft) S-SW 195 0,00 min 0 lux -3,9 C -1,4 C
10.03.2004 05:10 -1,5 C -0,7 C 83 % 1023 hPa 0,0 l/m 0,0 m/s (0 Bft) S-SW 200 0,00 min 0 lux -4,0 C -1,5 C
10.03.2004 05:15 -1,5 C -0,7 C 83 % 1023 hPa 0,0 l/m 0,0 m/s (0 Bft) S-SW 200 0,00 min 0 lux -4,0 C -1,5 C
10.03.2004 05:20 -1,4 C -0,7 C 83 % 1023 hPa 0,0 l/m 0,0 m/s (0 Bft) S-SW 200 0,00 min 0 lux -3,9 C -1,4 C
10.03.2004 05:25 -1,4 C -0,7 C 83 % 1023 hPa 0,0 l/m 0,0 m/s (0 Bft) O 90 0,00 min 0 lux -3,9 C -1,4 C
10.03.2004 05:30 -1,4 C -0,7 C 82 % 1023 hPa 0,0 l/m 0,0 m/s (0 Bft) O-SO22.5 115 0,00 min 0 lux -4,1 C -1,4 C
10.03.2004 05:35 -1,3 C -0,7 C 82 % 1023 hPa 0,0 l/m 0,0 m/s (0 Bft) O-SO22.5 115 0,00 min 0 lux -4,0 C -1,3 C
10.03.2004 05:40 -1,3 C -0,7 C 81 % 1023 hPa 0,0 l/m 0,0 m/s (0 Bft) O 80 0,00 min 0 lux -4,1 C -1,3 C
10.03.2004 05:45 -1,3 C -0,7 C 81 % 1023 hPa 0,0 l/m 0,1 m/s (0 Bft) N-NO67.5 30 0,00 min 0 lux -4,1 C -1,3 C
10.03.2004 05:50 -1,2 C -0,7 C 81 % 1023 hPa 0,0 l/m 0,4 m/s (0 Bft) O-NO45 70 0,00 min 0 lux -4,0 C -1,2 C
10.03.2004 05:55 -1,0 C -0,7 C 81 % 1023 hPa 0,0 l/m 1,7 m/s (1 Bft) O-NO45 75 0,00 min 0 lux -3,8 C -1,0 C
10.03.2004 06:00 -1,1 C -0,7 C 80 % 1023 hPa 0,0 l/m 0,1 m/s (0 Bft) N-NO45 20 0,00 min 0 lux -4,1 C -1,1 C
10.03.2004 06:05 -1,2 C -0,6 C 80 % 1023 hPa 0,0 l/m 1,2 m/s (1 Bft) O45 80 0,00 min 0 lux -4,2 C -1,2 C
10.03.2004 06:10 -1,2 C -0,7 C 80 % 1023 hPa 0,0 l/m 2,1 m/s (1 Bft) O-NO45 60 0,00 min 0 lux -4,2 C -2,5 C
10.03.2004 06:15 -1,2 C -0,6 C 80 % 1023 hPa 0,0 l/m 0,3 m/s (0 Bft) NO22.5 35 0,00 min 0 lux -4,2 C -1,2 C
10.03.2004 06:20 -1,2 C -0,6 C 80 % 1023 hPa 0,0 l/m 0,2 m/s (0 Bft) O45 95 0,00 min 0 lux -4,2 C -1,2 C
10.03.2004 06:25 -1,2 C -0,6 C 80 % 1023 hPa 0,0 l/m 1,1 m/s (0 Bft) O-NO22.5 65 0,00 min 0 lux -4,2 C -1,2 C
10.03.2004 06:30 -1,2 C -0,6 C 80 % 1023 hPa 0,0 l/m 0,3 m/s (0 Bft) O45 80 0,00 min 0 lux -4,2 C -1,2 C
10.03.2004 06:35 -1,2 C -0,6 C 80 % 1023 hPa 0,0 l/m 1,5 m/s (1 Bft) O 95 0,00 min 0 lux -4,2 C -1,2 C
10.03.2004 06:40 -1,3 C -0,6 C 80 % 1023 hPa 0,0 l/m 1,6 m/s (1 Bft) O22.5 90 0,00 min 61 lux -4,3 C -1,3 C
10.03.2004 06:45 -1,3 C -0,7 C 80 % 1022 hPa 0,0 l/m 0,8 m/s (0 Bft) NO45 45 0,00 min 112 lux -4,3 C -1,3 C
10.03.2004 06:50 -1,3 C -0,7 C 80 % 1022 hPa 0,0 l/m 2,6 m/s (1 Bft) NO45 35 0,00 min 192 lux -4,3 C -4,4 C
10.03.2004 06:55 -1,3 C -0,7 C 79 % 1022 hPa 0,0 l/m 0,7 m/s (0 Bft) O-NO22.5 70 0,00 min 294 lux -4,5 C -1,3 C
10.03.2004 07:00 -1,3 C -0,7 C 79 % 1023 hPa 0,0 l/m 1,2 m/s (1 Bft) O-NO22.5 70 0,00 min 435 lux -4,5 C -1,3 C
10.03.2004 07:05 -1,4 C -0,8 C 79 % 1023 hPa 0,0 l/m 2,1 m/s (1 Bft) O-NO22.5 75 0,00 min 609 lux -4,6 C -2,6 C
10.03.2004 07:10 -1,5 C -0,8 C 79 % 1022 hPa 0,0 l/m 0,1 m/s (0 Bft) O 85 0,00 min 643 lux -4,7 C -1,5 C
10.03.2004 07:15 -1,4 C -0,9 C 79 % 1023 hPa 0,0 l/m 0,0 m/s (0 Bft) O-NO45 70 0,00 min 1,01 klux -4,6 C -1,4 C
10.03.2004 07:20 -1,4 C -0,9 C 79 % 1023 hPa 0,0 l/m 0,0 m/s (0 Bft) O 90 0,00 min 2,05 klux -4,6 C -1,4 C
10.03.2004 07:25 -1,4 C -0,9 C 79 % 1023 hPa 0,0 l/m 0,0 m/s (0 Bft) N-NO45 30 0,00 min 2,16 klux -4,6 C -1,4 C
10.03.2004 07:30 -1,3 C -0,9 C 79 % 1023 hPa 0,0 l/m 0,0 m/s (0 Bft) N22.5 355 0,00 min 2,92 klux -4,5 C -1,3 C
10.03.2004 07:35 -1,2 C -0,9 C 78 % 1023 hPa 0,0 l/m 1,3 m/s (1 Bft) NO45 40 0,00 min 3,46 klux -4,5 C -1,2 C
10.03.2004 07:40 -1,2 C -0,8 C 78 % 1023 hPa 0,0 l/m 2,5 m/s (1 Bft) NO67.5 35 0,00 min 3,74 klux -4,5 C -3,8 C
10.03.2004 07:45 -1,1 C -0,8 C 77 % 1023 hPa 0,0 l/m 1,1 m/s (0 Bft) N-NO22.5 15 0,00 min 4,87 klux -4,6 C -1,1 C
10.03.2004 07:50 -0,9 C -0,7 C 77 % 1023 hPa 0,0 l/m 0,0 m/s (0 Bft) N-NO22.5 20 0,00 min 6,02 klux -4,4 C -0,9 C
10.03.2004 07:55 -0,9 C -0,6 C 77 % 1023 hPa 0,0 l/m 1,0 m/s (0 Bft) N-NO22.5 30 0,00 min 5,94 klux -4,4 C -0,9 C
10.03.2004 08:00 -0,9 C -0,6 C 76 % 1023 hPa 0,0 l/m 1,6 m/s (1 Bft) N-NO45 30 0,00 min 5,61 klux -4,6 C -0,9 C
10.03.2004 08:05 -0,7 C -0,4 C 76 % 1023 hPa 0,0 l/m 2,5 m/s (1 Bft) N-NO67.5 25 0,00 min 5,64 klux -4,4 C -3,2 C
10.03.2004 08:10 -0,8 C -0,4 C 76 % 1023 hPa 0,0 l/m 0,5 m/s (0 Bft) NO45 55 0,00 min 6,16 klux -4,5 C -0,8 C
10.03.2004 08:15 -0,9 C -0,3 C 76 % 1023 hPa 0,0 l/m 0,5 m/s (0 Bft) NO45 55 0,00 min 6,72 klux -4,6 C -0,9 C
10.03.2004 08:20 -1,0 C -0,3 C 76 % 1023 hPa 0,0 l/m 0,2 m/s (0 Bft) NO22.5 40 0,00 min 7,84 klux -4,7 C -1,0 C
10.03.2004 08:25 -1,0 C -0,3 C 76 % 1022 hPa 0,0 l/m 0,0 m/s (0 Bft) N-NO 30 0,00 min 6,71 klux -4,7 C -1,0 C
10.03.2004 08:30 -1,0 C -0,3 C 75 % 1022 hPa 0,0 l/m 1,6 m/s (1 Bft) N-NO45 30 0,00 min 6,09 klux -4,9 C -1,0 C
10.03.2004 08:35 -1,0 C -0,3 C 75 % 1022 hPa 0,0 l/m 0,3 m/s (0 Bft) NO22.5 55 0,00 min 4,81 klux -4,9 C -1,0 C
10.03.2004 08:40 -0,9 C -0,3 C 75 % 1022 hPa 0,0 l/m 1,6 m/s (1 Bft) NO45 55 0,00 min 4,79 klux -4,8 C -0,9 C
10.03.2004 08:45 -0,9 C -0,3 C 74 % 1022 hPa 0,0 l/m 2,2 m/s (1 Bft) NO45 45 0,00 min 7,30 klux -4,9 C -2,4 C
10.03.2004 08:50 -0,6 C -0,2 C 74 % 1022 hPa 0,0 l/m 2,4 m/s (1 Bft) NO22.5 50 0,00 min 9,3 klux -4,6 C -2,8 C
10.03.2004 08:55 -0,4 C -0,1 C 74 % 1022 hPa 0,0 l/m 2,1 m/s (1 Bft) NO22.5 55 0,00 min 9,5 klux -4,5 C -1,8 C
10.03.2004 09:00 -0,4 C 0,0 C 73 % 1022 hPa 0,0 l/m 2,3 m/s (1 Bft) N-NO67.5 30 0,00 min 7,44 klux -4,6 C -2,4 C
10.03.2004 09:05 -0,4 C 0,0 C 73 % 1022 hPa 0,0 l/m 2,6 m/s (1 Bft) NO45 35 0,00 min 7,16 klux -4,6 C -3,2 C
10.03.2004 09:10 -0,5 C 0,1 C 74 % 1022 hPa 0,0 l/m 1,2 m/s (1 Bft) N-NO45 25 0,00 min 6,69 klux -4,5 C -0,5 C
10.03.2004 09:15 -0,4 C 0,1 C 74 % 1022 hPa 0,0 l/m 0,4 m/s (0 Bft) N-NO 25 0,00 min 7,90 klux -4,5 C -0,4 C
10.03.2004 09:20 -0,3 C 0,2 C 73 % 1022 hPa 0,0 l/m 0,2 m/s (0 Bft) N-NO67.5 25 0,00 min 10,2 klux -4,5 C -0,3 C
10.03.2004 09:25 -0,2 C 0,2 C 73 % 1022 hPa 0,0 l/m 1,9 m/s (1 Bft) O-SO45 115 0,00 min 10,9 klux -4,4 C -0,6 C
10.03.2004 09:30 -0,2 C 0,3 C 73 % 1022 hPa 0,0 l/m 1,2 m/s (1 Bft) O-NO22.5 65 0,00 min 12,2 klux -4,4 C -0,2 C
10.03.2004 09:35 0,2 C 0,5 C 72 % 1022 hPa 0,0 l/m 2,3 m/s (1 Bft) O-NO67.5 60 0,00 min 15,7 klux -4,2 C -1,5 C
10.03.2004 09:40 0,3 C 0,6 C 71 % 1022 hPa 0,0 l/m 0,3 m/s (0 Bft) N-NO45 30 0,00 min 17,4 klux -4,3 C 0,3 C
10.03.2004 09:45 0,4 C 0,7 C 71 % 1022 hPa 0,0 l/m 2,5 m/s (1 Bft) NO45 45 0,00 min 18,3 klux -4,2 C -2,1 C
10.03.2004 09:50 0,3 C 0,9 C 71 % 1022 hPa 0,0 l/m 1,2 m/s (1 Bft) NO22.5 35 0,00 min 18,9 klux -4,3 C 0,3 C
10.03.2004 09:55 0,5 C 1,1 C 70 % 1022 hPa 0,0 l/m 0,6 m/s (0 Bft) NO67.5 45 0,00 min 21,7 klux -4,3 C 0,5 C
10.03.2004 10:00 0,6 C 1,1 C 70 % 1022 hPa 0,0 l/m 1,3 m/s (1 Bft) N-NO45 20 0,00 min 24,4 klux -4,2 C 0,6 C
10.03.2004 10:05 0,6 C 1,2 C 70 % 1022 hPa 0,0 l/m 0,4 m/s (0 Bft) N-NO22.5 25 0,00 min 25,2 klux -4,2 C 0,6 C
10.03.2004 10:10 0,8 C 1,4 C 69 % 1022 hPa 0,0 l/m 2,5 m/s (1 Bft) NO45 50 0,00 min 23,4 klux -4,2 C -1,6 C
10.03.2004 10:15 0,8 C 1,5 C 69 % 1022 hPa 0,0 l/m 1,7 m/s (1 Bft) N-NO45 25 0,00 min 22,6 klux -4,2 C 0,8 C
10.03.2004 10:20 0,4 C 1,6 C 68 % 1022 hPa 0,0 l/m 3,2 m/s (1 Bft) O-NO45 65 0,00 min 19,4 klux -4,8 C -4,2 C
10.03.2004 10:25 0,6 C 1,6 C 69 % 1022 hPa 0,0 l/m 2,5 m/s (1 Bft) O-SO45 105 0,00 min 20,1 klux -4,4 C -1,8 C
10.03.2004 10:30 0,8 C 1,7 C 69 % 1022 hPa 0,0 l/m 0,8 m/s (0 Bft) O-NO67.5 65 0,00 min 17,5 klux -4,2 C 0,8 C
10.03.2004 10:35 0,8 C 1,7 C 69 % 1022 hPa 0,0 l/m 1,8 m/s (1 Bft) O45 90 0,00 min 17,7 klux -4,2 C 0,7 C
10.03.2004 10:40 0,9 C 1,7 C 70 % 1022 hPa 0,0 l/m 2,1 m/s (1 Bft) O-NO45 60 0,00 min 19,4 klux -3,9 C -0,3 C
10.03.2004 10:45 0,5 C 1,7 C 69 % 1022 hPa 0,0 l/m 2,5 m/s (1 Bft) NO22.5 45 0,00 min 17,9 klux -4,5 C -2,0 C
10.03.2004 10:50 0,5 C 1,7 C 70 % 1022 hPa 0,0 l/m 3,6 m/s (1 Bft) O45 80 0,00 min 15,0 klux -4,3 C -5,1 C
10.03.2004 10:55 0,8 C 1,7 C 69 % 1022 hPa 0,0 l/m 1,9 m/s (1 Bft) O-NO45 60 0,00 min 13,8 klux -4,2 C 0,5 C
10.03.2004 11:00 0,6 C 1,7 C 68 % 1022 hPa 0,0 l/m 3,1 m/s (1 Bft) NO67.5 45 0,00 min 13,7 klux -4,6 C -3,6 C
10.03.2004 11:05 0,3 C 1,7 C 69 % 1022 hPa 0,0 l/m 5,3 m/s (1 Bft) O22.5 90 0,00 min 15,1 klux -4,7 C -8,8 C
10.03.2004 11:10 0,2 C 1,5 C 70 % 1022 hPa 0,0 l/m 4,8 m/s (1 Bft) O67.5 90 0,00 min 13,6 klux -4,6 C -8,0 C
10.03.2004 11:15 0,1 C 1,4 C 70 % 1022 hPa 0,0 l/m 5,9 m/s (2 Bft) O-NO45 65 0,00 min 13,2 klux -4,7 C -10,1 C
10.03.2004 11:20 0,3 C 1,3 C 70 % 1022 hPa 0,0 l/m 3,2 m/s (1 Bft) O45 85 0,00 min 8,07 klux -4,5 C -4,3 C
10.03.2004 11:25 0,2 C 1,3 C 71 % 1022 hPa 0,0 l/m 3,4 m/s (1 Bft) O-NO67.5 70 0,00 min 13,4 klux -4,4 C -4,9 C
10.03.2004 11:30 0,5 C 1,2 C 71 % 1022 hPa 0,0 l/m 3,5 m/s (1 Bft) O-SO45 105 0,00 min 13,2 klux -4,1 C -4,8 C
10.03.2004 11:35 0,4 C 1,3 C 70 % 1022 hPa 0,0 l/m 2,7 m/s (1 Bft) O45 90 0,00 min 12,9 klux -4,4 C -2,8 C
10.03.2004 11:40 0,4 C 1,3 C 70 % 1022 hPa 0,0 l/m 2,7 m/s (1 Bft) O-SO22.5 105 0,00 min 12,1 klux -4,4 C -2,7 C
10.03.2004 11:45 0,4 C 1,2 C 70 % 1022 hPa 0,0 l/m 4,5 m/s (1 Bft) O45 80 0,00 min 14,9 klux -4,4 C -7,2 C
10.03.2004 11:50 0,4 C 1,3 C 69 % 1022 hPa 0,0 l/m 3,7 m/s (1 Bft) O45 90 0,00 min 16,3 klux -4,6 C -5,5 C
10.03.2004 11:55 0,5 C 1,3 C 69 % 1022 hPa 0,0 l/m 4,8 m/s (1 Bft) O67.5 90 0,00 min 14,3 klux -4,5 C -7,7 C
10.03.2004 12:00 0,4 C 1,4 C 70 % 1022 hPa 0,0 l/m 5,4 m/s (1 Bft) O22.5 95 0,00 min 18,2 klux -4,4 C -8,8 C
10.03.2004 12:05 0,6 C 1,4 C 69 % 1022 hPa 0,0 l/m 4,3 m/s (1 Bft) O-SO22.5 110 0,00 min 25,1 klux -4,4 C -6,4 C
10.03.2004 12:10 0,6 C 1,6 C 69 % 1022 hPa 0,0 l/m 5,2 m/s (1 Bft) O-SO22.5 105 0,00 min 21,7 klux -4,4 C -8,3 C
10.03.2004 12:15 0,7 C 1,6 C 70 % 1022 hPa 0,0 l/m 5,8 m/s (2 Bft) O45 100 0,00 min 31,6 klux -4,1 C -9,1 C
10.03.2004 12:20 1,4 C 1,9 C 67 % 1021 hPa 0,0 l/m 3,6 m/s (1 Bft) O-NO45 75 0,00 min 38,1 klux -4,0 C -4,1 C
10.03.2004 12:25 1,1 C 2,0 C 68 % 1021 hPa 0,0 l/m 3,8 m/s (1 Bft) NO67.5 55 0,00 min 36,8 klux -4,1 C -4,9 C
10.03.2004 12:30 1,3 C 2,3 C 68 % 1021 hPa 0,0 l/m 4,0 m/s (1 Bft) O-NO67.5 75 0,00 min 35,5 klux -3,9 C -5,0 C
10.03.2004 12:35 1,1 C 2,6 C 68 % 1021 hPa 0,0 l/m 3,7 m/s (1 Bft) O-SO45 105 0,00 min 35,1 klux -4,1 C -4,5 C
10.03.2004 12:40 1,4 C 2,7 C 68 % 1021 hPa 0,0 l/m 1,6 m/s (1 Bft) O-NO45 60 0,00 min 27,8 klux -3,8 C 1,4 C
10.03.2004 12:45 0,9 C 2,5 C 69 % 1021 hPa 0,4 l/m 5,9 m/s (2 Bft) O-NO67.5 65 0,00 min 21,0 klux -4,1 C -9,0 C
10.03.2004 12:50 0,9 C 2,5 C 71 % 1021 hPa 0,0 l/m 5,6 m/s (1 Bft) O-NO45 70 0,00 min 19,3 klux -3,7 C -8,6 C
10.03.2004 12:55 1,1 C 2,4 C 70 % 1021 hPa 0,0 l/m 6,0 m/s (2 Bft) O45 85 0,00 min 17,2 klux -3,7 C -8,9 C
10.03.2004 13:00 1,1 C 2,4 C 69 % 1021 hPa 0,0 l/m 3,8 m/s (1 Bft) O67.5 80 0,00 min 21,3 klux -3,9 C -4,7 C
10.03.2004 13:05 1,3 C 2,5 C 69 % 1021 hPa 0,0 l/m 4,5 m/s (1 Bft) O-NO45 70 0,00 min 24,2 klux -3,7 C -6,1 C
10.03.2004 13:10 1,1 C 2,5 C 69 % 1021 hPa 0,0 l/m 4,3 m/s (1 Bft) O-NO45 65 0,00 min 19,5 klux -3,9 C -5,8 C
10.03.2004 13:15 1,2 C 2,5 C 70 % 1021 hPa 0,0 l/m 3,1 m/s (1 Bft) NO45 45 0,00 min 17,2 klux -3,7 C -3,0 C
10.03.2004 13:20 1,1 C 2,5 C 70 % 1021 hPa 0,4 l/m 3,8 m/s (1 Bft) O-NO45 75 0,00 min 17,4 klux -3,7 C -4,7 C
10.03.2004 13:25 1,0 C 2,5 C 71 % 1021 hPa 0,0 l/m 3,0 m/s (1 Bft) O-NO67.5 70 0,00 min 18,0 klux -3,7 C -3,0 C
10.03.2004 13:30 0,5 C 2,3 C 73 % 1021 hPa 0,0 l/m 4,2 m/s (1 Bft) O-NO45 75 0,00 min 16,6 klux -3,8 C -6,4 C
10.03.2004 13:35 0,6 C 2,2 C 74 % 1021 hPa 0,0 l/m 4,1 m/s (1 Bft) O67.5 80 0,00 min 16,2 klux -3,5 C -6,0 C
10.03.2004 13:40 0,7 C 2,1 C 74 % 1021 hPa 0,0 l/m 4,2 m/s (1 Bft) O45 90 0,00 min 21,9 klux -3,4 C -6,3 C
10.03.2004 13:45 1,0 C 2,2 C 73 % 1021 hPa 0,0 l/m 3,2 m/s (1 Bft) O45 80 0,00 min 21,9 klux -3,3 C -3,4 C
10.03.2004 13:50 1,0 C 2,2 C 72 % 1021 hPa 0,0 l/m 1,8 m/s (1 Bft) N-NO67.5 25 0,00 min 23,5 klux -3,5 C 0,8 C
10.03.2004 13:55 1,0 C 2,2 C 73 % 1021 hPa 0,0 l/m 3,1 m/s (1 Bft) O22.5 95 0,00 min 18,6 klux -3,3 C -3,1 C
10.03.2004 14:00 0,9 C 2,3 C 74 % 1021 hPa 0,0 l/m 2,7 m/s (1 Bft) O45 85 0,00 min 29,7 klux -3,2 C -2,1 C
10.03.2004 14:05 1,0 C 2,5 C 74 % 1020 hPa 0,0 l/m 4,4 m/s (1 Bft) O45 80 0,00 min 32,2 klux -3,1 C -6,2 C
10.03.2004 14:10 1,1 C 2,6 C 75 % 1020 hPa 0,0 l/m 5,2 m/s (1 Bft) O22.5 95 0,00 min 28,0 klux -2,8 C -7,6 C
10.03.2004 14:15 1,2 C 2,6 C 75 % 1020 hPa 0,0 l/m 3,6 m/s (1 Bft) O22.5 90 0,00 min 27,3 klux -2,7 C -4,2 C
10.03.2004 14:20 1,2 C 2,7 C 74 % 1020 hPa 0,0 l/m 3,8 m/s (1 Bft) O45 85 0,00 min 27,6 klux -2,9 C -4,8 C
10.03.2004 14:25 1,4 C 2,7 C 74 % 1020 hPa 0,0 l/m 0,4 m/s (0 Bft) N-NO22.5 15 0,00 min 14,9 klux -2,7 C 1,4 C
10.03.2004 14:30 0,4 C 2,6 C 75 % 1020 hPa 0,4 l/m 5,6 m/s (1 Bft) O-NO67.5 70 0,00 min 13,7 klux -3,5 C -9,2 C
10.03.2004 14:35 0,3 C 2,4 C 78 % 1020 hPa 0,0 l/m 4,2 m/s (1 Bft) O45 85 0,00 min 14,3 klux -3,1 C -6,7 C
10.03.2004 14:40 0,5 C 2,1 C 78 % 1020 hPa 0,0 l/m 3,6 m/s (1 Bft) O-NO67.5 75 0,00 min 16,1 klux -2,9 C -5,0 C
10.03.2004 14:45 0,7 C 2,1 C 79 % 1020 hPa 0,0 l/m 2,3 m/s (1 Bft) O22.5 100 0,00 min 21,3 klux -2,5 C -1,3 C
10.03.2004 14:50 0,3 C 2,1 C 79 % 1020 hPa 0,0 l/m 2,6 m/s (1 Bft) O22.5 95 0,00 min 14,3 klux -2,9 C -2,4 C
10.03.2004 14:55 0,4 C 2,1 C 79 % 1020 hPa 0,0 l/m 3,4 m/s (1 Bft) O-NO45 70 0,00 min 13,9 klux -2,8 C -4,7 C
10.03.2004 15:00 0,5 C 1,9 C 80 % 1020 hPa 0,0 l/m 3,0 m/s (1 Bft) O45 90 0,00 min 8,78 klux -2,5 C -3,6 C
10.03.2004 15:05 0,4 C 1,8 C 80 % 1020 hPa 0,0 l/m 2,9 m/s (1 Bft) O45 90 0,00 min 8,01 klux -2,6 C -3,5 C
10.03.2004 15:10 0,4 C 1,8 C 81 % 1020 hPa 0,0 l/m 3,3 m/s (1 Bft) O45 90 0,00 min 14,9 klux -2,5 C -4,4 C
10.03.2004 15:15 0,6 C 1,9 C 80 % 1020 hPa 0,0 l/m 2,5 m/s (1 Bft) O45 95 0,00 min 19,4 klux -2,4 C -1,8 C
10.03.2004 15:20 0,6 C 1,9 C 79 % 1020 hPa 0,0 l/m 4,1 m/s (1 Bft) O67.5 90 0,00 min 20,8 klux -2,6 C -6,0 C
10.03.2004 15:25 0,9 C 2,0 C 80 % 1020 hPa 0,0 l/m 3,5 m/s (1 Bft) O22.5 100 0,00 min 16,6 klux -2,2 C -4,3 C
10.03.2004 15:30 0,7 C 2,1 C 79 % 1020 hPa 0,0 l/m 2,8 m/s (1 Bft) NO45 40 0,00 min 14,5 klux -2,5 C -2,7 C
10.03.2004 15:35 0,6 C 1,9 C 77 % 1020 hPa 0,0 l/m 5,2 m/s (1 Bft) O-NO45 65 0,00 min 17,4 klux -3,0 C -8,3 C
10.03.2004 15:40 0,9 C 1,9 C 77 % 1020 hPa 0,0 l/m 5,2 m/s (1 Bft) O-NO45 75 0,00 min 19,6 klux -2,7 C -7,9 C
10.03.2004 15:45 0,9 C 2,1 C 77 % 1020 hPa 0,4 l/m 3,6 m/s (1 Bft) O-NO45 65 0,00 min 20,6 klux -2,7 C -4,7 C
10.03.2004 15:50 1,1 C 2,3 C 76 % 1020 hPa 0,0 l/m 3,4 m/s (1 Bft) O45 80 0,00 min 22,0 klux -2,6 C -4,0 C
10.03.2004 15:55 1,2 C 2,5 C 75 % 1020 hPa 0,0 l/m 2,2 m/s (1 Bft) NO67.5 50 0,00 min 22,0 klux -2,7 C -0,3 C
10.03.2004 16:00 1,3 C 2,9 C 75 % 1020 hPa 0,0 l/m 3,1 m/s (1 Bft) NO45 40 0,00 min 21,7 klux -2,6 C -2,9 C
10.03.2004 16:05 1,4 C 2,8 C 75 % 1020 hPa 0,0 l/m 3,9 m/s (1 Bft) O45 85 0,00 min 16,2 klux -2,5 C -4,8 C
10.03.2004 16:10 1,0 C 2,8 C 73 % 1020 hPa 0,0 l/m 5,3 m/s (1 Bft) O45 90 0,00 min 15,2 klux -3,3 C -8,0 C
10.03.2004 16:15 1,0 C 2,6 C 74 % 1020 hPa 0,0 l/m 4,6 m/s (1 Bft) O-NO67.5 60 0,00 min 6,79 klux -3,1 C -6,7 C
10.03.2004 16:20 0,8 C 2,4 C 76 % 1020 hPa 0,0 l/m 3,1 m/s (1 Bft) O22.5 80 0,00 min 5,77 klux -2,9 C -3,4 C
10.03.2004 16:25 0,8 C 2,2 C 76 % 1020 hPa 0,0 l/m 3,1 m/s (1 Bft) O-NO45 60 0,00 min 6,09 klux -2,9 C -3,6 C
10.03.2004 16:30 0,7 C 2,1 C 76 % 1020 hPa 0,0 l/m 3,8 m/s (1 Bft) O-NO45 70 0,00 min 7,13 klux -3,0 C -5,2 C
10.03.2004 16:35 0,7 C 2,0 C 76 % 1020 hPa 0,0 l/m 3,4 m/s (1 Bft) NO45 45 0,00 min 6,79 klux -3,0 C -4,4 C
10.03.2004 16:40 0,6 C 1,9 C 76 % 1020 hPa 0,0 l/m 3,4 m/s (1 Bft) NO45 45 0,00 min 10,4 klux -3,1 C -4,5 C
10.03.2004 16:45 0,7 C 1,9 C 77 % 1020 hPa 0,0 l/m 4,2 m/s (1 Bft) O45 85 0,00 min 12,2 klux -2,9 C -6,2 C
10.03.2004 16:50 0,8 C 1,8 C 77 % 1020 hPa 0,4 l/m 3,3 m/s (1 Bft) O-NO45 65 0,00 min 10,9 klux -2,8 C -4,1 C
10.03.2004 16:55 0,8 C 1,9 C 76 % 1020 hPa 0,0 l/m 3,0 m/s (1 Bft) O-NO45 70 0,00 min 10,4 klux -2,9 C -3,1 C
10.03.2004 17:00 0,8 C 1,9 C 76 % 1020 hPa 0,0 l/m 4,1 m/s (1 Bft) O45 90 0,00 min 10,9 klux -2,9 C -5,9 C
10.03.2004 17:05 0,8 C 1,9 C 76 % 1020 hPa 0,0 l/m 3,5 m/s (1 Bft) O-NO22.5 60 0,00 min 11,2 klux -2,9 C -4,5 C
10.03.2004 17:10 0,7 C 1,9 C 76 % 1020 hPa 0,0 l/m 3,3 m/s (1 Bft) O45 85 0,00 min 10,1 klux -3,0 C -4,1 C
10.03.2004 17:15 0,8 C 1,8 C 76 % 1020 hPa 0,0 l/m 2,4 m/s (1 Bft) O-NO67.5 60 0,00 min 8,27 klux -2,9 C -1,5 C
10.03.2004 17:20 0,7 C 1,8 C 77 % 1020 hPa 0,0 l/m 2,8 m/s (1 Bft) O-NO45 75 0,00 min 6,12 klux -2,9 C -2,6 C
10.03.2004 17:25 0,6 C 1,7 C 77 % 1020 hPa 0,0 l/m 3,6 m/s (1 Bft) O22.5 95 0,00 min 4,49 klux -3,0 C -4,9 C
10.03.2004 17:30 0,6 C 1,6 C 77 % 1020 hPa 0,0 l/m 2,9 m/s (1 Bft) O22.5 85 0,00 min 3,50 klux -3,0 C -3,2 C
10.03.2004 17:35 0,6 C 1,6 C 77 % 1020 hPa 0,0 l/m 4,6 m/s (1 Bft) O45 80 0,00 min 2,93 klux -3,0 C -7,1 C
10.03.2004 17:40 0,5 C 1,6 C 77 % 1020 hPa 0,0 l/m 2,5 m/s (1 Bft) O22.5 95 0,00 min 2,84 klux -3,1 C -2,1 C
10.03.2004 17:45 0,5 C 1,5 C 77 % 1020 hPa 0,0 l/m 3,6 m/s (1 Bft) O45 80 0,00 min 2,39 klux -3,1 C -5,1 C
10.03.2004 17:50 0,4 C 1,4 C 78 % 1020 hPa 0,0 l/m 2,2 m/s (1 Bft) O-NO22.5 70 0,00 min 2,18 klux -3,0 C -1,0 C
10.03.2004 17:55 0,4 C 1,4 C 78 % 1020 hPa 0,0 l/m 2,7 m/s (1 Bft) O45 85 0,00 min 2,26 klux -3,0 C -2,8 C
10.03.2004 18:00 0,3 C 1,3 C 78 % 1020 hPa 0,0 l/m 2,4 m/s (1 Bft) O22.5 80 0,00 min 1,48 klux -3,1 C -2,1 C
10.03.2004 18:05 0,3 C 1,2 C 78 % 1020 hPa 0,0 l/m 3,6 m/s (1 Bft) O45 85 0,00 min 1,25 klux -3,1 C -5,4 C
10.03.2004 18:10 0,3 C 1,2 C 78 % 1020 hPa 0,0 l/m 3,7 m/s (1 Bft) O22.5 90 0,00 min 616 lux -3,1 C -5,5 C
10.03.2004 18:15 0,3 C 1,1 C 78 % 1020 hPa 0,0 l/m 2,7 m/s (1 Bft) O22.5 90 0,00 min 233 lux -3,1 C -2,8 C
10.03.2004 18:20 0,3 C 1,0 C 78 % 1020 hPa 0,0 l/m 3,1 m/s (1 Bft) O22.5 90 0,00 min 259 lux -3,1 C -3,9 C
10.03.2004 18:25 0,2 C 1,0 C 79 % 1020 hPa 0,0 l/m 2,8 m/s (1 Bft) O-NO45 70 0,00 min 217 lux -3,0 C -3,3 C
10.03.2004 18:30 0,2 C 1,0 C 79 % 1020 hPa 0,0 l/m 2,6 m/s (1 Bft) O22.5 90 0,00 min 105 lux -3,0 C -2,5 C
10.03.2004 18:35 0,1 C 0,9 C 79 % 1020 hPa 0,0 l/m 2,0 m/s (1 Bft) O-NO22.5 60 0,00 min 56 lux -3,1 C -0,7 C
10.03.2004 18:40 0,2 C 0,9 C 79 % 1020 hPa 0,0 l/m 3,1 m/s (1 Bft) O-NO22.5 65 0,00 min 26 lux -3,0 C -4,0 C
10.03.2004 18:45 0,2 C 0,9 C 79 % 1020 hPa 0,0 l/m 2,8 m/s (1 Bft) O-NO22.5 60 0,00 min 15 lux -3,0 C -3,1 C
10.03.2004 18:50 0,1 C 0,9 C 79 % 1020 hPa 0,0 l/m 2,9 m/s (1 Bft) O-NO45 75 0,00 min 9 lux -3,1 C -3,7 C
10.03.2004 18:55 0,1 C 0,8 C 79 % 1020 hPa 0,0 l/m 2,7 m/s (1 Bft) O-NO22.5 65 0,00 min 5 lux -3,1 C -3,2 C
10.03.2004 19:00 0,1 C 0,8 C 79 % 1020 hPa 0,0 l/m 2,6 m/s (1 Bft) O22.5 80 0,00 min 0 lux -3,1 C -2,7 C
10.03.2004 19:05 0,1 C 0,8 C 79 % 1020 hPa 0,0 l/m 2,3 m/s (1 Bft) O-NO45 60 0,00 min 0 lux -3,1 C -1,6 C
10.03.2004 19:10 0,1 C 0,8 C 79 % 1020 hPa 0,0 l/m 2,2 m/s (1 Bft) O-NO45 70 0,00 min 0 lux -3,1 C -1,5 C
10.03.2004 19:15 0,1 C 0,8 C 79 % 1020 hPa 0,0 l/m 1,8 m/s (1 Bft) N-NO45 30 0,00 min 0 lux -3,1 C 0,1 C
10.03.2004 19:20 0,1 C 0,8 C 79 % 1020 hPa 0,0 l/m 3,1 m/s (1 Bft) NO45 45 0,00 min 0 lux -3,1 C -4,1 C
10.03.2004 19:25 0,1 C 0,7 C 79 % 1020 hPa 0,0 l/m 2,1 m/s (1 Bft) O-NO22.5 70 0,00 min 0 lux -3,1 C -0,9 C
10.03.2004 19:30 0,0 C 0,7 C 79 % 1020 hPa 0,0 l/m 2,5 m/s (1 Bft) O-NO22.5 65 0,00 min 0 lux -3,2 C -2,7 C
10.03.2004 19:35 0,0 C 0,7 C 79 % 1020 hPa 0,0 l/m 2,9 m/s (1 Bft) NO45 55 0,00 min 0 lux -3,2 C -3,9 C
10.03.2004 19:40 0,0 C 0,7 C 79 % 1020 hPa 0,0 l/m 2,6 m/s (1 Bft) O22.5 80 0,00 min 0 lux -3,2 C -3,0 C
10.03.2004 19:45 0,0 C 0,7 C 79 % 1020 hPa 0,0 l/m 3,4 m/s (1 Bft) O-NO45 70 0,00 min 0 lux -3,2 C -5,2 C
10.03.2004 19:50 0,0 C 0,7 C 79 % 1020 hPa 0,0 l/m 3,4 m/s (1 Bft) O-NO45 70 0,00 min 0 lux -3,2 C -5,2 C
10.03.2004 19:55 0,0 C 0,7 C 79 % 1020 hPa 0,0 l/m 3,2 m/s (1 Bft) O45 85 0,00 min 0 lux -3,2 C -4,7 C
10.03.2004 20:00 0,0 C 0,6 C 79 % 1020 hPa 0,0 l/m 2,6 m/s (1 Bft) O-NO45 65 0,00 min 0 lux -3,2 C -3,0 C
10.03.2004 20:05 0,0 C 0,6 C 79 % 1020 hPa 0,0 l/m 3,6 m/s (1 Bft) O-NO22.5 75 0,00 min 0 lux -3,2 C -5,6 C
10.03.2004 20:10 -0,1 C 0,6 C 79 % 1020 hPa 0,0 l/m 3,9 m/s (1 Bft) O22.5 80 0,00 min 0 lux -3,3 C -6,5 C
10.03.2004 20:15 -0,1 C 0,5 C 79 % 1020 hPa 0,0 l/m 3,1 m/s (1 Bft) O-NO45 75 0,00 min 0 lux -3,3 C -4,4 C
10.03.2004 20:20 -0,1 C 0,5 C 79 % 1020 hPa 0,0 l/m 2,6 m/s (1 Bft) O-NO22.5 60 0,00 min 0 lux -3,3 C -3,1 C
10.03.2004 20:25 -0,1 C 0,5 C 79 % 1020 hPa 0,0 l/m 2,1 m/s (1 Bft) O22.5 95 0,00 min 0 lux -3,3 C -1,4 C
10.03.2004 20:30 -0,1 C 0,4 C 79 % 1020 hPa 0,0 l/m 2,6 m/s (1 Bft) O45 90 0,00 min 0 lux -3,3 C -3,0 C
10.03.2004 20:35 -0,2 C 0,4 C 79 % 1020 hPa 0,0 l/m 1,8 m/s (1 Bft) O22.5 85 0,00 min 0 lux -3,4 C -0,4 C
10.03.2004 20:40 -0,2 C 0,4 C 79 % 1020 hPa 0,0 l/m 2,2 m/s (1 Bft) O-NO45 70 0,00 min 0 lux -3,4 C -1,9 C
10.03.2004 20:45 -0,2 C 0,4 C 79 % 1020 hPa 0,0 l/m 2,5 m/s (1 Bft) O45 85 0,00 min 0 lux -3,4 C -2,8 C
10.03.2004 20:50 -0,2 C 0,4 C 79 % 1020 hPa 0,0 l/m 3,1 m/s (1 Bft) O22.5 85 0,00 min 0 lux -3,4 C -4,7 C
10.03.2004 20:55 -0,2 C 0,4 C 79 % 1020 hPa 0,0 l/m 3,3 m/s (1 Bft) O45 80 0,00 min 0 lux -3,4 C -5,2 C
10.03.2004 21:00 -0,2 C 0,4 C 79 % 1020 hPa 0,0 l/m 2,1 m/s (1 Bft) O22.5 95 0,00 min 0 lux -3,4 C -1,6 C
10.03.2004 21:05 -0,2 C 0,3 C 79 % 1020 hPa 0,0 l/m 3,0 m/s (1 Bft) O22.5 85 0,00 min 0 lux -3,4 C -4,3 C
10.03.2004 21:10 -0,2 C 0,4 C 79 % 1020 hPa 0,0 l/m 2,8 m/s (1 Bft) O-NO22.5 75 0,00 min 0 lux -3,4 C -3,8 C
10.03.2004 21:15 -0,2 C 0,4 C 79 % 1020 hPa 0,0 l/m 3,3 m/s (1 Bft) O22.5 90 0,00 min 0 lux -3,4 C -5,2 C
10.03.2004 21:20 -0,2 C 0,4 C 79 % 1020 hPa 0,0 l/m 2,8 m/s (1 Bft) O-NO45 70 0,00 min 0 lux -3,4 C -3,6 C
10.03.2004 21:25 -0,2 C 0,4 C 79 % 1021 hPa 0,0 l/m 3,8 m/s (1 Bft) O45 85 0,00 min 0 lux -3,4 C -6,3 C
10.03.2004 21:30 -0,1 C 0,4 C 79 % 1021 hPa 0,0 l/m 2,9 m/s (1 Bft) O45 95 0,00 min 0 lux -3,3 C -3,8 C
10.03.2004 21:35 -0,2 C 0,4 C 78 % 1021 hPa 0,0 l/m 2,9 m/s (1 Bft) O22.5 85 0,00 min 0 lux -3,6 C -4,1 C
10.03.2004 21:40 -0,2 C 0,3 C 79 % 1020 hPa 0,0 l/m 2,7 m/s (1 Bft) O45 90 0,00 min 0 lux -3,4 C -3,5 C
10.03.2004 21:45 -0,2 C 0,3 C 79 % 1021 hPa 0,0 l/m 3,3 m/s (1 Bft) O45 95 0,00 min 0 lux -3,4 C -5,1 C
10.03.2004 21:50 -0,1 C 0,4 C 79 % 1021 hPa 0,0 l/m 3,0 m/s (1 Bft) O22.5 95 0,00 min 0 lux -3,3 C -4,2 C
10.03.2004 21:55 -0,1 C 0,4 C 79 % 1021 hPa 0,0 l/m 3,9 m/s (1 Bft) O45 90 0,00 min 0 lux -3,3 C -6,5 C
10.03.2004 22:00 -0,2 C 0,3 C 79 % 1021 hPa 0,0 l/m 4,4 m/s (1 Bft) O22.5 95 0,00 min 0 lux -3,4 C -7,7 C
10.03.2004 22:05 -0,2 C 0,3 C 79 % 1021 hPa 0,0 l/m 4,4 m/s (1 Bft) O22.5 95 0,00 min 0 lux -3,4 C -7,7 C
10.03.2004 22:10 -0,2 C 0,3 C 79 % 1021 hPa 0,0 l/m 3,9 m/s (1 Bft) O45 85 0,00 min 0 lux -3,4 C -6,6 C
10.03.2004 22:15 -0,2 C 0,3 C 79 % 1021 hPa 0,0 l/m 3,5 m/s (1 Bft) O-NO45 75 0,00 min 0 lux -3,4 C -5,6 C
10.03.2004 22:20 -0,2 C 0,3 C 79 % 1021 hPa 0,0 l/m 3,8 m/s (1 Bft) O45 80 0,00 min 0 lux -3,4 C -6,3 C
10.03.2004 22:25 -0,2 C 0,3 C 79 % 1021 hPa 0,0 l/m 4,6 m/s (1 Bft) O-NO45 75 0,00 min 0 lux -3,4 C -8,2 C
10.03.2004 22:30 -0,2 C 0,3 C 79 % 1021 hPa 0,0 l/m 3,1 m/s (1 Bft) O-NO22.5 70 0,00 min 0 lux -3,4 C -4,7 C
10.03.2004 22:35 -0,2 C 0,3 C 79 % 1021 hPa 0,0 l/m 3,3 m/s (1 Bft) O45 90 0,00 min 0 lux -3,4 C -5,0 C
10.03.2004 22:40 -0,3 C 0,2 C 79 % 1021 hPa 0,0 l/m 1,9 m/s (1 Bft) O22.5 95 0,00 min 0 lux -3,5 C -0,9 C
10.03.2004 22:45 -0,3 C 0,2 C 79 % 1021 hPa 0,0 l/m 2,6 m/s (1 Bft) O22.5 80 0,00 min 0 lux -3,5 C -3,2 C
10.03.2004 22:50 -0,3 C 0,2 C 79 % 1021 hPa 0,0 l/m 1,6 m/s (1 Bft) O22.5 100 0,00 min 0 lux -3,5 C -0,3 C
10.03.2004 22:55 -0,3 C 0,2 C 79 % 1021 hPa 0,0 l/m 1,5 m/s (1 Bft) O22.5 90 0,00 min 0 lux -3,5 C -0,3 C
10.03.2004 23:00 -0,3 C 0,2 C 79 % 1021 hPa 0,0 l/m 1,6 m/s (1 Bft) O-NO22.5 70 0,00 min 0 lux -3,5 C -0,3 C
10.03.2004 23:05 -0,3 C 0,2 C 79 % 1021 hPa 0,0 l/m 1,9 m/s (1 Bft) O22.5 80 0,00 min 0 lux -3,5 C -0,6 C
10.03.2004 23:10 -0,3 C 0,2 C 79 % 1021 hPa 0,0 l/m 1,9 m/s (1 Bft) O22.5 85 0,00 min 0 lux -3,5 C -0,6 C
10.03.2004 23:15 -0,3 C 0,3 C 79 % 1021 hPa 0,0 l/m 1,2 m/s (1 Bft) NO 55 0,00 min 0 lux -3,5 C -0,3 C
10.03.2004 23:20 -0,3 C 0,2 C 79 % 1021 hPa 0,0 l/m 2,4 m/s (1 Bft) O22.5 80 0,00 min 0 lux -3,5 C -2,4 C
10.03.2004 23:25 -0,3 C 0,2 C 79 % 1021 hPa 0,0 l/m 1,6 m/s (1 Bft) O-NO45 60 0,00 min 0 lux -3,5 C -0,3 C
10.03.2004 23:30 -0,3 C 0,2 C 79 % 1021 hPa 0,0 l/m 2,2 m/s (1 Bft) O-NO22.5 75 0,00 min 0 lux -3,5 C -1,8 C
10.03.2004 23:35 -0,3 C 0,3 C 79 % 1021 hPa 0,0 l/m 1,6 m/s (1 Bft) O-NO22.5 75 0,00 min 0 lux -3,5 C -0,3 C
10.03.2004 23:40 -0,3 C 0,2 C 79 % 1021 hPa 0,0 l/m 1,9 m/s (1 Bft) O22.5 85 0,00 min 0 lux -3,5 C -0,9 C
10.03.2004 23:45 -0,3 C 0,2 C 79 % 1021 hPa 0,0 l/m 1,0 m/s (0 Bft) O 80 0,00 min 0 lux -3,5 C -0,3 C
10.03.2004 23:50 -0,3 C 0,2 C 79 % 1021 hPa 0,0 l/m 0,3 m/s (0 Bft) O 80 0,00 min 0 lux -3,5 C -0,3 C
10.03.2004 23:55 -0,3 C 0,2 C 79 % 1021 hPa 0,0 l/m 0,9 m/s (0 Bft) O-SO 105 0,00 min 0 lux -3,5 C -0,3 C
_ Min-Zeit 02:20 02:25 12:20 14:05 - 01:05 - - - - 08:45 11:15
Minimum _ -1,6 C -0,9 C 67 % 1020 hPa - 0,0 m/s (0 Bft) - - - - -4,9 C -10,1 C
_ Max-Zeit 12:20 16:00 04:25 00:00 12:45 12:55 - - 00:00 12:20 15:25 12:40
Maximum _ 1,4 C 2,9 C 83 % 1026 hPa 0,4 l/m 6,0 m/s
O (4 Bft)
- - 0,00 min 38,1 klux -2,2 C 1,4 C
Durchschnitt _ -0,2 C 0,6 C 77 % 1022 hPa #1,8 l/m 2,2 m/s (2 Bft) O - #0 min. 6,56 klux -3,8 C -2,9 C